User: anonymous   Login
Location: Sandbanks Provincial Park
(47.6073°N, 57.6428°W)
Time: 02:54:13
(UTC-03:-30)
Language:

Cosmos 2034 Rocket - Orbit

View from above orbital plane
View from above orbital plane
View from above satellite
View from above satellite

Ground track
Ground track

The orbit data is extracted from the following two-line orbital elements,

1 20150U 89059B   17350.51001536 -.00000024 +00000-0 -40825-4 0  9997
2 20150 082.9389 318.8249 0029962 131.4354 008.0267 13.75629413425244
Epoch (UTC): 16 December 2017 12:14:25
Eccentricity: 0.0029962
inclination: 82.9389°
perigee height: 957 km
apogee height: 1001 km
right ascension of ascending node: 318.8249°
argument of perigee: 131.4354°
revolutions per day: 13.75629413
mean anomaly at epoch: 8.0267°
orbit number at epoch: 42524

The dashed part of the orbit path shows where the satellite is in the earth's shadow,  

DLR